�������l�o���
Date,Time,MP-1(��Sv/h),MP-2(��Sv/h),MP-3(��Sv/h),MP-4(��Sv/h),MP-5(��Sv/h),MP-6(��Sv/h),MP-7(��Sv/h),MP-8(��Sv/h),����,����(m/s),���J
2018/10/11,00:00,0.802,1.214,0.851,1.509,1.093,0.468,0.816,0.772,���쐼,1.5,��
2018/10/11,00:10,0.803,1.217,0.851,1.509,1.091,0.467,0.815,0.771,�쐼,1.2,��
2018/10/11,00:20,0.803,1.213,0.853,1.509,1.091,0.467,0.816,0.773,��,1.7,��
2018/10/11,00:30,0.803,1.215,0.850,1.509,1.093,0.467,0.817,0.771,��쐼,2.2,��
2018/10/11,00:40,0.803,1.214,0.851,1.508,1.091,0.468,0.816,0.771,��쐼,2.3,��
2018/10/11,00:50,0.803,1.215,0.852,1.508,1.093,0.466,0.816,0.772,��,2.3,��
2018/10/11,01:00,0.803,1.215,0.852,1.510,1.091,0.468,0.817,0.771,��,1.9,��
2018/10/11,01:10,0.803,1.213,0.852,1.510,1.092,0.467,0.816,0.771,�쐼,2.0,��
2018/10/11,01:20,0.805,1.214,0.852,1.508,1.091,0.466,0.817,0.772,�쐼,1.7,��
2018/10/11,01:30,0.803,1.213,0.850,1.509,1.090,0.468,0.817,0.769,��,1.7,��
2018/10/11,01:40,0.803,1.214,0.853,1.511,1.091,0.467,0.817,0.771,��,1.5,��
2018/10/11,01:50,0.804,1.215,0.851,1.510,1.092,0.467,0.816,0.770,���k��,1.7,��
2018/10/11,02:00,0.802,1.214,0.849,1.508,1.091,0.467,0.817,0.770,���k��,1.2,��
2018/10/11,02:10,0.804,1.214,0.851,1.511,1.091,0.467,0.817,0.772,���k��,1.2,��
2018/10/11,02:20,0.804,1.213,0.852,1.512,1.092,0.469,0.816,0.772,�k��,1.2,��
2018/10/11,02:30,0.803,1.215,0.851,1.511,1.091,0.466,0.816,0.771,�k��,1.1,��
2018/10/11,02:40,0.804,1.216,0.852,1.509,1.090,0.465,0.819,0.770,�k��,1.7,��
2018/10/11,02:50,0.804,1.214,0.850,1.509,1.091,0.468,0.817,0.771,�k�k��,1.7,��
2018/10/11,03:00,0.804,1.214,0.853,1.509,1.090,0.468,0.817,0.773,�k,1.5,��
2018/10/11,03:10,0.804,1.214,0.854,1.512,1.092,0.467,0.817,0.772,�k��,4.4,��
2018/10/11,03:20,0.805,1.215,0.853,1.512,1.090,0.468,0.817,0.772,�k�k��,6.3,��
2018/10/11,03:30,0.804,1.216,0.853,1.509,1.093,0.467,0.816,0.773,�k�k��,5.9,��
2018/10/11,03:40,0.803,1.216,0.852,1.511,1.091,0.467,0.816,0.770,�k�k��,5.4,��
2018/10/11,03:50,0.804,1.216,0.851,1.509,1.093,0.467,0.816,0.773,�k�k��,5.5,��
2018/10/11,04:00,0.805,1.215,0.853,1.509,1.091,0.466,0.816,0.772,�k�k��,5.7,�L
2018/10/11,04:10,0.804,1.216,0.854,1.509,1.092,0.467,0.816,0.770,�k�k��,5.3,�L
2018/10/11,04:20,0.803,1.215,0.853,1.511,1.091,0.467,0.817,0.770,�k�k��,4.9,�L
2018/10/11,04:30,0.805,1.213,0.853,1.511,1.092,0.468,0.815,0.771,�k�k��,4.9,�L
2018/10/11,04:40,0.804,1.216,0.854,1.512,1.093,0.467,0.814,0.770,�k�k��,4.5,��
2018/10/11,04:50,0.804,1.216,0.853,1.511,1.091,0.468,0.814,0.774,�k�k��,5.3,��
2018/10/11,05:00,0.805,1.213,0.853,1.508,1.092,0.468,0.816,0.771,�k�k��,4.7,��
2018/10/11,05:10,0.804,1.214,0.851,1.508,1.092,0.467,0.815,0.772,�k�k��,5.2,��
2018/10/11,05:20,0.804,1.215,0.852,1.511,1.091,0.467,0.816,0.772,�k�k��,5.8,��
2018/10/11,05:30,0.805,1.214,0.853,1.508,1.090,0.466,0.815,0.771,�k�k��,6.4,��
2018/10/11,05:40,0.805,1.216,0.853,1.511,1.091,0.468,0.816,0.771,�k�k��,6.4,��
2018/10/11,05:50,0.804,1.216,0.853,1.514,1.094,0.466,0.816,0.772,�k�k��,6.3,��
2018/10/11,06:00,0.803,1.215,0.854,1.510,1.091,0.466,0.817,0.773,�k�k��,6.0,��
2018/10/11,06:10,0.805,1.215,0.853,1.510,1.091,0.466,0.814,0.771,�k�k��,5.4,��
2018/10/11,06:20,0.805,1.213,0.853,1.510,1.092,0.468,0.816,0.773,�k�k��,5.2,��
2018/10/11,06:30,0.802,1.216,0.852,1.510,1.093,0.466,0.816,0.770,�k�k��,5.4,��
2018/10/11,06:40,0.802,1.214,0.852,1.513,1.091,0.468,0.815,0.772,�k��,6.0,��
2018/10/11,06:50,0.804,1.211,0.852,1.513,1.092,0.467,0.815,0.770,�k��,6.7,�L
2018/10/11,07:00,0.804,1.213,0.852,1.511,1.090,0.468,0.814,0.772,�k��,6.1,��
2018/10/11,07:10,0.806,1.214,0.852,1.511,1.089,0.465,0.815,0.770,�k�k��,5.8,�L
2018/10/11,07:20,0.803,1.216,0.853,1.509,1.091,0.467,0.815,0.770,�k�k��,6.7,�L
2018/10/11,07:30,0.803,1.212,0.852,1.510,1.092,0.466,0.815,0.772,�k��,6.8,�L
2018/10/11,07:40,0.804,1.214,0.852,1.511,1.089,0.468,0.815,0.770,�k��,6.4,�L
2018/10/11,07:50,0.803,1.215,0.851,1.509,1.091,0.468,0.814,0.768,�k�k��,6.3,�L
2018/10/11,08:00,0.803,1.213,0.851,1.510,1.090,0.465,0.815,0.771,�k�k��,5.4,��
2018/10/11,08:10,0.805,1.212,0.852,1.511,1.091,0.467,0.816,0.771,�k��,4.7,��
2018/10/11,08:20,0.804,1.212,0.851,1.512,1.091,0.466,0.817,0.771,�k��,5.5,�L
2018/10/11,08:30,0.804,1.213,0.851,1.508,1.090,0.467,0.816,0.772,�k�k��,5.2,�L
2018/10/11,08:40,0.804,1.210,0.853,1.510,1.091,0.468,0.815,0.771,�k�k��,5.7,�L
2018/10/11,08:50,0.804,1.210,0.849,1.509,1.089,0.467,0.813,0.771,�k�k��,6.2,�L
2018/10/11,09:00,0.802,1.210,0.851,1.507,1.087,0.467,0.812,0.771,�k�k��,6.0,�L
2018/10/11,09:10,0.802,1.205,0.849,1.508,1.088,0.466,0.815,0.770,�k�k��,5.3,�L
2018/10/11,09:20,0.800,1.206,0.848,1.506,1.088,0.465,0.814,0.768,�k��,5.3,�L
2018/10/11,09:30,0.803,1.203,0.849,1.508,1.089,0.465,0.813,0.768,�k��,5.3,�L
2018/10/11,09:40,0.802,1.201,0.847,1.508,1.088,0.465,0.815,0.769,�k��,5.3,�L
2018/10/11,09:50,0.800,1.203,0.848,1.507,1.087,0.465,0.813,0.767,�k��,5.2,�L
2018/10/11,10:00,0.801,1.203,0.847,1.507,1.088,0.466,0.814,0.769,�k��,5.8,�L
2018/10/11,10:10,0.799,1.200,0.844,1.506,1.087,0.465,0.811,0.768,�k��,6.0,�L
2018/10/11,10:20,0.800,1.199,0.846,1.506,1.088,0.465,0.813,0.766,�k�k��,5.8,�L
2018/10/11,10:30,0.799,1.197,0.846,1.503,1.085,0.465,0.813,0.766,�k�k��,6.0,�L
2018/10/11,10:40,0.800,1.198,0.849,1.504,1.083,0.465,0.811,0.766,�k�k��,5.5,�L
2018/10/11,10:50,0.798,1.196,0.846,1.505,1.080,0.465,0.812,0.767,�k�k��,5.2,�L
2018/10/11,11:00,0.798,1.193,0.844,1.500,1.080,0.464,0.812,0.767,�k��,5.3,�L
2018/10/11,11:10,0.796,1.191,0.843,1.503,1.080,0.465,0.812,0.766,�k�k��,4.8,�L
2018/10/11,11:20,0.796,1.190,0.844,1.498,1.079,0.464,0.813,0.766,�k��,4.5,�L
2018/10/11,11:30,0.795,1.187,0.842,1.496,1.071,0.464,0.811,0.767,�k��,3.9,�L
2018/10/11,11:40,0.793,1.175,0.839,1.489,1.065,0.464,0.811,0.763,�k�k��,4.2,�L
2018/10/11,11:50,0.790,1.173,0.835,1.485,1.065,0.461,0.808,0.762,�k�k��,5.4,�L
2018/10/11,12:00,0.789,1.170,0.833,1.480,1.061,0.460,0.807,0.764,�k�k��,5.6,�L
2018/10/11,12:10,0.787,1.167,0.833,1.476,1.057,0.462,0.808,0.760,�k�k��,4.7,�L
2018/10/11,12:20,0.784,1.159,0.829,1.473,1.053,0.460,0.806,0.762,�k�k��,4.1,�L
2018/10/11,12:30,0.783,1.156,0.828,1.472,1.053,0.461,0.808,0.762,�k�k��,4.6,�L
2018/10/11,12:40,0.784,1.159,0.829,1.470,1.054,0.460,0.806,0.761,�k�k��,5.7,�L
2018/10/11,12:50,0.783,1.157,0.830,1.469,1.052,0.458,0.805,0.760,�k�k��,6.4,�L
2018/10/11,13:00,0.780,1.157,0.828,1.468,1.054,0.460,0.803,0.760,�k�k��,5.9,�L
2018/10/11,13:10,0.783,1.162,0.828,1.468,1.056,0.459,0.806,0.760,�k�k��,5.5,�L
2018/10/11,13:20,0.783,1.158,0.829,1.471,1.051,0.459,0.806,0.760,�k��,4.7,�L
2018/10/11,13:30,0.785,1.160,0.831,1.469,1.054,0.457,0.805,0.761,�k��,4.7,�L
2018/10/11,13:40,0.781,1.162,0.829,1.468,1.055,0.460,0.805,0.760,�k�k��,5.3,�L
2018/10/11,13:50,0.784,1.160,0.829,1.468,1.054,0.459,0.806,0.759,�k�k��,5.4,�L
2018/10/11,14:00,0.783,1.163,0.829,1.468,1.055,0.460,0.803,0.760,�k��,6.0,�L
2018/10/11,14:10,0.780,1.160,0.830,1.466,1.056,0.459,0.804,0.760,�k��,7.2,�L
2018/10/11,14:20,0.783,1.155,0.828,1.466,1.051,0.458,0.806,0.762,�k�k��,6.1,�L
2018/10/11,14:30,0.779,1.156,0.825,1.463,1.050,0.458,0.804,0.757,�k��,3.0,�L
2018/10/11,14:40,0.772,1.143,0.819,1.446,1.036,0.454,0.798,0.751,�k�k��,4.6,�L
2018/10/11,14:50,0.768,1.135,0.814,1.436,1.029,0.452,0.795,0.751,�k�k��,6.3,�L
2018/10/11,15:00,0.764,1.129,0.812,1.432,1.026,0.450,0.795,0.750,�k�k��,5.9,�L
2018/10/11,15:10,0.767,1.133,0.812,1.439,1.031,0.452,0.794,0.750,�k�k��,6.4,�L
2018/10/11,15:20,0.769,1.137,0.814,1.440,1.032,0.452,0.797,0.751,�k�k��,7.8,�L
2018/10/11,15:30,0.766,1.139,0.814,1.440,1.032,0.452,0.795,0.751,�k�k��,6.6,�L
2018/10/11,15:40,0.769,1.139,0.813,1.442,1.033,0.453,0.797,0.752,�k�k��,7.5,�L
2018/10/11,15:50,0.772,1.141,0.814,1.442,1.036,0.453,0.797,0.754,�k�k��,6.8,�L
2018/10/11,16:00,0.771,1.143,0.817,1.443,1.036,0.453,0.797,0.752,�k�k��,6.4,�L
2018/10/11,16:10,0.769,1.144,0.816,1.444,1.040,0.453,0.796,0.753,�k�k��,6.4,�L
2018/10/11,16:20,0.770,1.146,0.817,1.445,1.037,0.454,0.798,0.755,�k��,6.9,�L
2018/10/11,16:30,0.771,1.148,0.816,1.444,1.036,0.455,0.796,0.755,�k��,7.0,�L
2018/10/11,16:40,0.773,1.150,0.817,1.444,1.040,0.454,0.795,0.756,�k�k��,5.9,�L
2018/10/11,16:50,0.770,1.151,0.816,1.444,1.039,0.454,0.797,0.755,�k�k��,6.2,�L
2018/10/11,17:00,0.773,1.151,0.818,1.447,1.039,0.455,0.795,0.757,�k�k��,5.8,�L
2018/10/11,17:10,0.772,1.152,0.816,1.444,1.041,0.455,0.797,0.755,�k�k��,6.5,��
2018/10/11,17:20,0.773,1.150,0.816,1.446,1.041,0.455,0.798,0.758,�k�k��,6.7,��
2018/10/11,17:30,0.769,1.152,0.816,1.446,1.038,0.455,0.798,0.759,�k�k��,6.4,�L
2018/10/11,17:40,0.771,1.151,0.818,1.448,1.039,0.454,0.798,0.756,�k�k��,6.4,�L
2018/10/11,17:50,0.771,1.151,0.816,1.448,1.042,0.457,0.799,0.757,�k�k��,6.1,�L
2018/10/11,18:00,0.771,1.150,0.817,1.448,1.042,0.456,0.798,0.757,�k�k��,5.4,�L
2018/10/11,18:10,0.771,1.152,0.817,1.448,1.042,0.457,0.797,0.758,�k��,6.9,�L
2018/10/11,18:20,0.771,1.151,0.818,1.449,1.042,0.457,0.797,0.757,�k��,6.1,�L
2018/10/11,18:30,0.772,1.153,0.817,1.447,1.038,0.456,0.799,0.757,�k��,6.1,�L
2018/10/11,18:40,0.770,1.149,0.817,1.447,1.038,0.455,0.796,0.758,�k��,6.1,�L
2018/10/11,18:50,0.770,1.150,0.818,1.448,1.041,0.456,0.797,0.758,�k��,5.9,�L
2018/10/11,19:00,0.772,1.149,0.816,1.447,1.040,0.455,0.798,0.757,�k��,6.1,�L
2018/10/11,19:10,0.771,1.152,0.819,1.448,1.038,0.455,0.799,0.757,�k��,6.0,�L
2018/10/11,19:20,0.769,1.152,0.817,1.448,1.040,0.458,0.798,0.757,�k��,5.9,�L
2018/10/11,19:30,0.769,1.148,0.818,1.448,1.041,0.455,0.799,0.757,�k�k��,5.8,�L
2018/10/11,19:40,0.771,1.151,0.816,1.447,1.039,0.457,0.797,0.757,�k��,6.7,�L
2018/10/11,19:50,0.771,1.149,0.816,1.449,1.038,0.456,0.797,0.757,�k��,6.3,�L
2018/10/11,20:00,0.771,1.149,0.816,1.448,1.039,0.457,0.797,0.758,�k��,6.2,�L
2018/10/11,20:10,0.773,1.149,0.817,1.448,1.039,0.458,0.798,0.757,�k��,5.8,�L
2018/10/11,20:20,0.771,1.151,0.818,1.450,1.039,0.457,0.798,0.758,�k��,5.6,�L
2018/10/11,20:30,0.770,1.151,0.816,1.448,1.041,0.458,0.797,0.757,�k��,5.6,�L
2018/10/11,20:40,0.772,1.149,0.817,1.447,1.040,0.458,0.797,0.758,�k��,5.7,�L
2018/10/11,20:50,0.772,1.151,0.818,1.449,1.043,0.457,0.798,0.757,�k��,6.3,�L
2018/10/11,21:00,0.771,1.152,0.816,1.448,1.040,0.455,0.798,0.759,�k��,6.5,��
2018/10/11,21:10,0.769,1.151,0.816,1.448,1.040,0.455,0.799,0.758,�k��,5.7,�L
2018/10/11,21:20,0.770,1.150,0.816,1.447,1.039,0.457,0.798,0.758,�k��,5.8,�L
2018/10/11,21:30,0.770,1.150,0.816,1.448,1.040,0.456,0.798,0.757,�k�k��,5.7,�L
2018/10/11,21:40,0.770,1.149,0.815,1.449,1.041,0.455,0.796,0.758,�k�k��,5.8,��
2018/10/11,21:50,0.769,1.149,0.817,1.443,1.040,0.456,0.799,0.758,�k�k��,5.1,�L
2018/10/11,22:00,0.770,1.149,0.816,1.448,1.038,0.456,0.797,0.758,�k��,5.8,�L
2018/10/11,22:10,0.771,1.151,0.814,1.446,1.038,0.457,0.799,0.758,�k�k��,5.4,�L
2018/10/11,22:20,0.769,1.149,0.816,1.446,1.039,0.457,0.798,0.757,�k�k��,5.7,�L
2018/10/11,22:30,0.769,1.148,0.816,1.446,1.038,0.456,0.799,0.758,�k�k��,6.0,�L
2018/10/11,22:40,0.769,1.150,0.815,1.446,1.040,0.455,0.797,0.759,�k�k��,5.7,�L
2018/10/11,22:50,0.769,1.148,0.815,1.446,1.038,0.456,0.800,0.757,�k�k��,5.5,�L
2018/10/11,23:00,0.769,1.148,0.816,1.448,1.038,0.458,0.797,0.757,�k�k��,5.8,�L
2018/10/11,23:10,0.769,1.147,0.816,1.448,1.039,0.456,0.798,0.759,�k�k��,5.5,�L
2018/10/11,23:20,0.768,1.145,0.814,1.448,1.037,0.455,0.797,0.756,�k�k��,6.2,�L
2018/10/11,23:30,0.768,1.143,0.812,1.443,1.034,0.457,0.797,0.756,�k�k��,6.2,�L
2018/10/11,23:40,0.766,1.139,0.813,1.441,1.036,0.457,0.797,0.756,�k�k��,6.5,�L
2018/10/11,23:50,0.769,1.140,0.812,1.438,1.036,0.458,0.798,0.756,�k�k��,6.1,�L
